Weather History for Philadelphia Wings Airport, PA

Change the Weather History Date:

Tuesday, May 14, 2013

  Actual Average (KPNE) Record (KPNE)
Temperature  
Mean Temperature 48 °F -  
Max Temperature 60 °F 69 °F 82 °F (2004)
Min Temperature 35 °F 49 °F 37 °F (2013)
Degree Days  
Heating Degree Days 18    
Moisture  
Dew Point 33 °F    
Average Humidity 57    
Maximum Humidity 93    
Minimum Humidity 27    
Precipitation  
Precipitation 0.00 in - - ()
Sea Level Pressure  
Sea Level Pressure 30.11 in    
Wind  
Wind Speed 2 mph (West)    
Max Wind Speed 13 mph    
Max Gust Speed 20 mph    
Visibility 10 miles    
Events      
Averages and records for this station are not official NWS values.
T = Trace of Precipitation, MM = Missing Value Source: NWS Daily Summary

Daily Weather History Graph

Daily Weather History Graph

Search for Another Location

Airport:

Trip Planner

Search our weather history database for the weather conditions in past years. The results will help you decide how hot, cold, wet, or windy it might be!

Date:

Astronomy

May. 14, 2013 Rise Set
Actual Time 5:46 AM EDT 8:09 PM EDT
Civil Twilight 5:15 AM EDT 8:39 PM EDT
Nautical Twilight 4:37 AM EDT 9:17 PM EDT
Astronomical Twilight 3:55 AM EDT 10:00 PM EDT
Moon 9:23 AM EDT (5/14) 11:55 PM EDT (5/14)
Length of Visible Light 15h 24m
Length of Day
14h 22m
Waxing Crescent, 19% of the Moon is Illuminated
May 14
Waxing Crescent
May 18
First Quarter
May 25
Full
May 31
Last Quarter
Jun 8
New

Hourly Weather History & Observations

Time (EDT) Temp. Dew Point Humidity Pressure Visibility Wind Dir Wind Speed Gust Speed Precip Events Conditions
12:15 AM 41.0 °F 33.8 °F 76% 30.14 in 10.0 mi Calm Calm - N/A   Clear
12:35 AM 39.2 °F 35.6 °F 87% 30.14 in 10.0 mi Calm Calm - N/A   Clear
12:55 AM 41.0 °F 33.8 °F 76% 30.14 in 10.0 mi Calm Calm - N/A   Clear
1:15 AM 41.0 °F 33.8 °F 76% 30.14 in 10.0 mi Calm Calm - N/A   Clear
1:35 AM 41.0 °F 33.8 °F 76% 30.13 in 10.0 mi Calm Calm - N/A   Clear
1:55 AM 41.0 °F 33.8 °F 76% 30.13 in 10.0 mi Calm Calm - N/A   Clear
2:15 AM 37.4 °F 33.8 °F 87% 30.14 in 10.0 mi Calm Calm - N/A   Clear
2:35 AM 37.4 °F 33.8 °F 87% 30.14 in 10.0 mi Calm Calm - N/A   Clear
2:55 AM 37.4 °F 33.8 °F 87% 30.15 in 10.0 mi Calm Calm - N/A   Clear
3:15 AM 35.6 °F 33.8 °F 93% 30.14 in 10.0 mi Calm Calm - N/A   Clear
3:35 AM 35.6 °F 33.8 °F 93% 30.14 in 10.0 mi Calm Calm - N/A   Clear
3:55 AM 37.4 °F 33.8 °F 87% 30.13 in 10.0 mi Calm Calm - N/A   Clear
4:15 AM 35.6 °F 33.8 °F 93% 30.13 in 10.0 mi Calm Calm - N/A   Clear
4:35 AM 37.4 °F 33.8 °F 87% 30.14 in 10.0 mi Calm Calm - N/A   Clear
4:55 AM 37.4 °F 33.8 °F 87% 30.14 in 10.0 mi Calm Calm - N/A   Clear
5:15 AM 37.4 °F 33.8 °F 87% 30.14 in 10.0 mi Calm Calm - N/A   Clear
5:35 AM 35.6 °F 33.8 °F 93% 30.14 in 10.0 mi Calm Calm - N/A   Clear
5:55 AM 35.6 °F 33.8 °F 93% 30.15 in 10.0 mi Calm Calm - N/A   Clear
6:15 AM 35.6 °F 33.8 °F 93% 30.15 in 1.5 mi Calm Calm - N/A   Unknown
6:35 AM 37.4 °F 33.8 °F 87% 30.16 in 7.0 mi Calm Calm - N/A   Clear
6:55 AM 41.0 °F 33.8 °F 76% 30.16 in 4.0 mi Calm Calm - N/A   Clear
7:15 AM 42.8 °F 32.0 °F 66% 30.16 in 10.0 mi Calm Calm - N/A   Clear
7:35 AM 42.8 °F 33.8 °F 70% 30.16 in 10.0 mi Calm Calm - N/A   Clear
7:55 AM 44.6 °F 32.0 °F 61% 30.17 in 10.0 mi Calm Calm - N/A   Clear
8:15 AM 46.4 °F 32.0 °F 57% 30.17 in 10.0 mi Calm Calm - N/A   Clear
8:35 AM 46.4 °F 32.0 °F 57% 30.17 in 10.0 mi Calm Calm - N/A   Clear
8:55 AM 48.2 °F 32.0 °F 54% 30.17 in 10.0 mi WNW 5.8 mph - N/A   Clear
9:15 AM 50.0 °F 32.0 °F 50% 30.18 in 10.0 mi NW 4.6 mph - N/A   Clear
9:35 AM 50.0 °F 32.0 °F 50% 30.17 in 10.0 mi Calm Calm - N/A   Clear
9:55 AM 51.8 °F 32.0 °F 47% 30.16 in 10.0 mi West 9.2 mph - N/A   Clear
10:15 AM 51.8 °F 32.0 °F 47% 30.16 in 10.0 mi WNW 5.8 mph - N/A   Clear
10:35 AM 53.6 °F 32.0 °F 44% 30.15 in 10.0 mi Calm Calm - N/A   Clear
10:55 AM 53.6 °F 30.2 °F 41% 30.15 in 10.0 mi WNW 5.8 mph - N/A   Clear
11:15 AM 55.4 °F 32.0 °F 41% 30.14 in 10.0 mi NNW 8.1 mph - N/A   Scattered Clouds
11:35 AM 55.4 °F 32.0 °F 41% 30.13 in 10.0 mi West 8.1 mph - N/A   Clear
11:55 AM 55.4 °F 30.2 °F 38% 30.13 in 10.0 mi West 6.9 mph 16.1 mph N/A   Clear
12:15 PM 55.4 °F 32.0 °F 41% 30.13 in 10.0 mi WNW 9.2 mph - N/A   Clear
12:35 PM 55.4 °F 30.2 °F 38% 30.13 in 10.0 mi WNW 4.6 mph 17.3 mph N/A   Clear
12:55 PM 57.2 °F 30.2 °F 36% 30.13 in 10.0 mi West 10.4 mph 19.6 mph N/A   Clear
1:35 PM 59.0 °F 32.0 °F 36% 30.12 in 10.0 mi West 6.9 mph - N/A   Clear
1:55 PM 59.0 °F 26.6 °F 29% 30.12 in 10.0 mi WNW 10.4 mph 17.3 mph N/A   Clear
2:15 PM 59.0 °F 30.2 °F 34% 30.10 in 10.0 mi WNW 12.7 mph 19.6 mph N/A   Clear
2:35 PM 59.0 °F 28.4 °F 31% 30.11 in 10.0 mi WNW 4.6 mph - N/A   Clear
2:55 PM 59.0 °F 28.4 °F 31% 30.10 in 10.0 mi West 9.2 mph 16.1 mph N/A   Clear
3:15 PM 59.0 °F 28.4 °F 31% 30.09 in 10.0 mi WNW 8.1 mph 17.3 mph N/A   Clear
3:35 PM 59.0 °F 26.6 °F 29% 30.08 in 10.0 mi WNW 4.6 mph - N/A   Clear
3:55 PM 60.8 °F 28.4 °F 29% 30.07 in 10.0 mi West 6.9 mph - N/A   Clear
4:15 PM 60.8 °F 26.6 °F 27% 30.08 in 10.0 mi West 5.8 mph - N/A   Clear
4:35 PM 60.8 °F 28.4 °F 29% 30.06 in 10.0 mi West 5.8 mph - N/A   Clear
4:55 PM 60.8 °F 30.2 °F 31% 30.06 in 10.0 mi West 8.1 mph - N/A   Clear
5:15 PM 60.8 °F 28.4 °F 29% 30.06 in 10.0 mi West 9.2 mph - N/A   Clear
5:35 PM 60.8 °F 28.4 °F 29% 30.05 in 10.0 mi WNW 4.6 mph - N/A   Clear
5:55 PM 60.8 °F 30.2 °F 31% 30.05 in 10.0 mi WSW 9.2 mph - N/A   Clear
6:15 PM 60.8 °F 30.2 °F 31% 30.05 in 10.0 mi West 5.8 mph - N/A   Clear
6:35 PM 60.8 °F 30.2 °F 31% 30.05 in 10.0 mi Calm Calm - N/A   Clear
6:55 PM 59.0 °F 30.2 °F 34% 30.05 in 10.0 mi SW 5.8 mph - N/A   Clear
7:15 PM 59.0 °F 30.2 °F 34% 30.06 in 10.0 mi West 5.8 mph - N/A   Clear
7:35 PM 59.0 °F 28.4 °F 31% 30.05 in 10.0 mi Calm Calm - N/A   Clear
7:55 PM 55.4 °F 30.2 °F 38% 30.05 in 10.0 mi WSW 3.5 mph - N/A   Clear
8:15 PM 55.4 °F 32.0 °F 41% 30.05 in 10.0 mi Calm Calm - N/A   Clear
8:35 PM 50.0 °F 35.6 °F 58% 30.05 in 10.0 mi Calm Calm - N/A   Clear
8:55 PM 50.0 °F 35.6 °F 58% 30.05 in 10.0 mi Calm Calm - N/A   Clear
9:15 PM 48.2 °F 37.4 °F 66% 30.06 in 10.0 mi Calm Calm - N/A   Clear
9:35 PM 48.2 °F 37.4 °F 66% 30.07 in 10.0 mi Calm Calm - N/A   Clear
9:55 PM 50.0 °F 39.2 °F 66% 30.08 in 10.0 mi Calm Calm - N/A   Clear
10:15 PM 50.0 °F 39.2 °F 66% 30.08 in 10.0 mi Calm Calm - N/A   Clear
10:35 PM 48.2 °F 35.6 °F 62% 30.08 in 10.0 mi Calm Calm - N/A   Scattered Clouds
10:55 PM 50.0 °F 41.0 °F 71% 30.08 in 10.0 mi Calm Calm - N/A   Scattered Clouds
11:15 PM 48.2 °F 37.4 °F 66% 30.08 in 10.0 mi Calm Calm - N/A   Clear
11:35 PM 48.2 °F 41.0 °F 76% 30.07 in 10.0 mi Calm Calm - N/A   Clear
11:55 PM 50.0 °F 41.0 °F 71% 30.08 in 10.0 mi Calm Calm - N/A   Clear